{"data":{"norad_id":67453,"epoch":"2026-09-19T12:23:33.848736Z","epoch_age_seconds":157291,"freshness":"FRESH","line1":"1 67453U 26008J   26262.51636399  .00014934  00000+0  55092-3 0  9995","line2":"2 67453  43.0007 190.7372 0000837 287.8959  72.1801 15.27591903 39212","mean_motion":15.27591903,"eccentricity":8.37e-5,"inclination_deg":43.0007,"raan_deg":190.7372,"arg_perigee_deg":287.8959,"mean_anomaly_deg":72.1801,"bstar":0.00055092,"rev_number":3921,"period_min":94.266014186906,"perigee_km":482.43917611397,"apogee_km":483.58773270004,"semimajor_km":6861.150454407,"source":"CELESTRAK","updated_at":"2026-09-20T09:00:43.548167Z"}}